Location: Middle West Pubnico, Nova Scotia, Canada
(43.6568°N, 65.8177°W)
Time: 00:44:14
(UTC-04:00)

ISS - Visible Passes

Search period start: 28 January 2022 00:00
Search period end: 07 February 2022 00:00
Orbit: 413 x 422 km, 51.6° (Epoch: 27 January)

Date Brightness Start Highest point End Pass type
(mag) Time Alt. Az. Time Alt. Az. Time Alt. Az.
28 Jan -2.0 17:55:23 10° NW 17:57:58 20° N 18:00:34 10° NE visible
28 Jan -1.7 19:32:32 10° NW 19:34:09 21° NNW 19:34:09 21° NNW visible
29 Jan -2.3 18:44:27 10° NW 18:47:13 23° NNE 18:48:07 21° NE visible
29 Jan -0.3 20:21:02 10° NW 20:21:02 10° NW 20:21:02 10° NW visible
30 Jan -2.3 19:32:58 10° NW 19:35:03 32° NNW 19:35:03 32° NNW visible
31 Jan -2.9 18:44:55 10° NW 18:48:01 35° NNE 18:49:08 27° ENE visible
31 Jan -0.4 20:21:39 10° WNW 20:22:04 13° WNW 20:22:04 13° WNW visible
01 Feb -3.2 19:33:26 10° WNW 19:36:15 57° W 19:36:15 57° W visible
02 Feb -3.9 18:45:17 10° NW 18:48:37 71° NNE 18:50:33 23° ESE visible
02 Feb -0.5 20:22:53 10° W 20:23:31 13° WSW 20:23:31 13° WSW visible
03 Feb -1.9 19:34:10 10° WNW 19:37:01 26° SW 19:38:01 22° SSW visible
04 Feb -2.7 18:45:45 10° WNW 18:48:57 44° SW 18:52:08 10° SE visible
06 Feb -0.8 18:46:47 10° W 18:49:01 17° SW 18:51:15 10° S visible
